Weather History for Miramar MCAS, CA

Change the Weather History Date:

Saturday, November 9, 2013

  Actual Average Record
Temperature  
Mean Temperature 60 °F -  
Max Temperature 79 °F 67 °F 90 °F (1996)
Min Temperature 42 °F 48 °F 39 °F (2011)
Degree Days  
Heating Degree Days 4    
Growing Degree Days 10 (Base 50)    
Moisture  
Dew Point 31 °F    
Average Humidity 47    
Maximum Humidity 96    
Minimum Humidity 11    
Precipitation  
Precipitation 0.00 in - - ()
Sea Level Pressure  
Sea Level Pressure 30.02 in    
Wind  
Wind Speed 4 mph (NE)    
Max Wind Speed 9 mph    
Max Gust Speed -    
Visibility 8 miles    
Events Fog    
Averages and records for this station are not official NWS values.
T = Trace of Precipitation, MM = Missing Value Source: NWS Daily Summary

Daily Weather History Graph

Daily Weather History Graph

Search for Another Location

Airport:

Trip Planner

Search our weather history database for the weather conditions in past years. The results will help you decide how hot, cold, wet, or windy it might be!

Date:

Astronomy

Nov. 09, 2013 Rise Set
Actual Time 6:13 AM PST 4:50 PM PST
Civil Twilight 5:47 AM PST 5:16 PM PST
Nautical Twilight 5:18 AM PST 5:46 PM PST
Astronomical Twilight 4:49 AM PST 6:15 PM PST
Moon 11:57 AM PST (11/9) 11:21 PM PST (11/9)
Length of Visible Light 11h 28m
Length of Day
10h 36m
Waxing Crescent, 45% of the Moon is Illuminated
Nov 9
Waxing Crescent
Nov 9
First Quarter
Nov 17
Full
Nov 25
Last Quarter
Dec 2
New

Hourly Weather History & Observations

Time (PST) Temp. Windchill Dew Point Humidity Pressure Visibility Wind Dir Wind Speed Gust Speed Precip Events Conditions
12:55 AM 54.0 °F - 52.0 °F 93% 30.00 in 0.2 mi East 3.5 mph - N/A Fog Fog
1:55 AM 48.0 °F - 46.0 °F 93% 29.99 in 0.2 mi Calm Calm - N/A Fog Fog
2:55 AM 46.0 °F - 45.0 °F 96% 29.99 in 0.2 mi Calm Calm - N/A Fog Fog
3:55 AM 45.0 °F - 43.0 °F 93% 29.99 in 0.2 mi Calm Calm - N/A Fog Fog
4:55 AM 42.1 °F 40.2 °F 39.9 °F 92% 30.00 in 0.2 mi NW 3.5 mph - N/A Fog Fog
5:55 AM 43.0 °F 41.3 °F 41.0 °F 93% 30.00 in 1.0 mi ENE 3.5 mph - N/A   Mist
5:57 AM 43.0 °F 41.3 °F 41.0 °F 93% 30.01 in 5.0 mi ENE 3.5 mph - N/A   Scattered Clouds
6:55 AM 46.9 °F - 39.9 °F 77% 30.01 in 10.0 mi ENE 6.9 mph - N/A   Clear
7:55 AM 62.1 °F - 37.9 °F 41% 30.03 in 10.0 mi ENE 4.6 mph - N/A   Clear
8:55 AM 66.0 °F - 36.0 °F 33% 30.05 in 10.0 mi Variable 3.5 mph - N/A   Clear
9:55 AM 71.1 °F - 28.9 °F 21% 30.04 in 10.0 mi NNW 4.6 mph - N/A   Clear
10:55 AM 75.9 °F - 21.9 °F 13% 30.03 in 10.0 mi South 6.9 mph - N/A   Clear
11:55 AM 79.0 °F - 19.9 °F 11% 30.01 in 10.0 mi Variable 6.9 mph - N/A   Clear
12:55 PM 77.0 °F - 19.0 °F 11% 30.00 in 10.0 mi SW 8.1 mph - N/A   Clear
1:55 PM 75.0 °F - 16.0 °F 11% 30.00 in 10.0 mi West 9.2 mph - N/A   Clear
2:55 PM 72.0 °F - 26.1 °F 18% 30.01 in 10.0 mi West 6.9 mph - N/A   Clear
3:55 PM 70.0 °F - 23.0 °F 17% 30.00 in 10.0 mi NW 4.6 mph - N/A   Clear
4:55 PM 63.0 °F - 21.9 °F 21% 30.00 in 10.0 mi WNW 3.5 mph - N/A   Partly Cloudy
5:55 PM 57.0 °F - 25.0 °F 29% 30.03 in 10.0 mi WSW 4.6 mph - N/A   Partly Cloudy
6:55 PM 52.0 °F - 27.0 °F 38% 30.05 in 10.0 mi East 4.6 mph - N/A   Partly Cloudy
7:55 PM 50.0 °F - 27.0 °F 41% 30.06 in 10.0 mi East 3.5 mph - N/A   Partly Cloudy
8:55 PM 52.0 °F - 27.0 °F 38% 30.07 in 10.0 mi North 4.6 mph - N/A   Mostly Cloudy
9:55 PM 52.0 °F - 27.0 °F 38% 30.05 in 10.0 mi ENE 6.9 mph - N/A   Mostly Cloudy
10:55 PM 55.0 °F - 28.0 °F 35% 30.04 in 10.0 mi East 8.1 mph - N/A   Mostly Cloudy
11:55 PM 57.0 °F - 27.0 °F 32% 30.02 in 10.0 mi ENE 9.2 mph - N/A   Mostly Cloudy